When you browse on this site, cookies collect data to enhance your experience and personalize the content and advertising you see.
Visit our Privacy Policy to learn more. By continuing to use the site, you agree to this use of cookies and data.
  • în România
  • Lista ţărilor
  • Pe 7 zile
  • Temperatura apei
  • Hartă satelitară
  • Meteo pe hartă
  • Widget-uri
  • user-avatar
    Intrare

    Meteo pe oră la Garrisberg

    Astăzi, 20 Mai, Luni

    Timp Temperatura Precipitaţii Vânt Presiune Umiditate
    00:00 +22°C° 0.1 mm 4 m/s 749 mmHg 85%
    01:00 +22°C° 0 mm 3 m/s 749 mmHg 86%
    02:00 +21°C° 0.1 mm 3 m/s 749 mmHg 85%
    03:00 +21°C° 0.1 mm 3 m/s 749 mmHg 84%
    04:00 +21°C° 0.1 mm 4 m/s 749 mmHg 83%
    05:00 +21°C° 0 mm 4 m/s 749 mmHg 81%
    06:00 +22°C° 0 mm 4 m/s 749 mmHg 80%
    07:00 +24°C° 0 mm 3 m/s 748 mmHg 75%
    08:00 +25°C° 0 mm 4 m/s 748 mmHg 71%
    09:00 +26°C° 0 mm 4 m/s 748 mmHg 67%
    10:00 +27°C° 0 mm 5 m/s 748 mmHg 63%
    11:00 +28°C° 0 mm 5 m/s 748 mmHg 60%
    12:00 +29°C° 0 mm 5 m/s 747 mmHg 57%
    13:00 +30°C° 0 mm 6 m/s 747 mmHg 54%
    14:00 +30°C° 0 mm 5 m/s 747 mmHg 53%
    15:00 +30°C° 0 mm 5 m/s 747 mmHg 52%
    16:00 +30°C° 0 mm 5 m/s 747 mmHg 51%
    17:00 +28°C° 0 mm 5 m/s 747 mmHg 55%
    18:00 +26°C° 0 mm 5 m/s 748 mmHg 60%
    19:00 +23°C° 0 mm 5 m/s 748 mmHg 64%
    20:00 +21°C° 0 mm 5 m/s 749 mmHg 65%
    21:00 +19°C° 0 mm 5 m/s 749 mmHg 67%
    22:00 +16°C° 0 mm 5 m/s 750 mmHg 68%
    23:00 +15°C° 0 mm 5 m/s 751 mmHg 68%

    Mâine, 21 Mai, Marţi

    Timp Temperatura Precipitaţii Vânt Presiune Umiditate
    00:00 +13°C° 0 mm 5 m/s 751 mmHg 67%
    01:00 +12°C° 0 mm 4 m/s 751 mmHg 67%
    02:00 +11°C° 0 mm 4 m/s 751 mmHg 69%
    03:00 +10°C° 0 mm 4 m/s 752 mmHg 71%
    04:00 +8°C° 0 mm 4 m/s 752 mmHg 73%
    05:00 +10°C° 0 mm 4 m/s 752 mmHg 71%
    06:00 +10°C° 0 mm 4 m/s 753 mmHg 70%
    07:00 +10°C° 0 mm 5 m/s 753 mmHg 68%
    08:00 +13°C° 0 mm 5 m/s 753 mmHg 62%
    09:00 +14°C° 0 mm 4 m/s 753 mmHg 57%
    10:00 +17°C° 0 mm 4 m/s 753 mmHg 52%
    11:00 +18°C° 0 mm 4 m/s 753 mmHg 48%
    12:00 +19°C° 0 mm 4 m/s 753 mmHg 45%
    13:00 +21°C° 0 mm 4 m/s 753 mmHg 42%
    14:00 +21°C° 0 mm 4 m/s 753 mmHg 43%
    15:00 +22°C° 0 mm 4 m/s 753 mmHg 43%
    16:00 +22°C° 0 mm 4 m/s 753 mmHg 44%
    17:00 +20°C° 0 mm 4 m/s 753 mmHg 49%
    18:00 +19°C° 0 mm 3 m/s 754 mmHg 54%
    19:00 +17°C° 0 mm 3 m/s 754 mmHg 58%
    20:00 +16°C° 0 mm 3 m/s 755 mmHg 60%
    21:00 +15°C° 0 mm 2 m/s 756 mmHg 62%
    22:00 +13°C° 0 mm 2 m/s 756 mmHg 65%
    23:00 +13°C° 0 mm 2 m/s 757 mmHg 68%

    Poimâine, 22 Mai, Miercuri

    Timp Temperatura Precipitaţii Vânt Presiune Umiditate
    00:00 +12°C° 0 mm 1 m/s 757 mmHg 71%
    01:00 +11°C° 0 mm 1 m/s 757 mmHg 74%
    02:00 +11°C° 0 mm 1 m/s 757 mmHg 75%
    03:00 +11°C° 0 mm 1 m/s 757 mmHg 76%
    04:00 +10°C° 0 mm 1 m/s 757 mmHg 77%
    05:00 +12°C° 0 mm 1 m/s 758 mmHg 74%
    06:00 +13°C° 0 mm 1 m/s 758 mmHg 70%
    07:00 +14°C° 0 mm 1 m/s 759 mmHg 67%
    08:00 +18°C° 0 mm 1 m/s 759 mmHg 60%
    09:00 +18°C° 0 mm 0 m/s 759 mmHg 54%
    10:00 +20°C° 0 mm 0 m/s 759 mmHg 47%
    11:00 +23°C° 0 mm 1 m/s 759 mmHg 46%
    12:00 +23°C° 0 mm 1 m/s 758 mmHg 44%
    13:00 +23°C° 0 mm 1 m/s 758 mmHg 42%
    14:00 +24°C° 0 mm 1 m/s 758 mmHg 44%
    15:00 +24°C° 0 mm 2 m/s 757 mmHg 46%
    16:00 +24°C° 0 mm 2 m/s 757 mmHg 48%
    17:00 +23°C° 0 mm 2 m/s 757 mmHg 54%
    18:00 +20°C° 0 mm 2 m/s 757 mmHg 60%
    19:00 +19°C° 0 mm 2 m/s 757 mmHg 67%
    20:00 +19°C° 0 mm 2 m/s 757 mmHg 64%
    21:00 +18°C° 0 mm 2 m/s 757 mmHg 62%
    22:00 +18°C° 0 mm 3 m/s 757 mmHg 59%
    23:00 +17°C° 0.4 mm 2 m/s 757 mmHg 63%

    23 Mai, Joi

    Timp Temperatura Precipitaţii Vânt Presiune Umiditate
    00:00 +16°C° 0.4 mm 2 m/s 757 mmHg 67%
    01:00 +16°C° 0.4 mm 2 m/s 757 mmHg 71%
    02:00 +15°C° 0.4 mm 2 m/s 757 mmHg 75%
    03:00 +15°C° 0.4 mm 2 m/s 756 mmHg 79%
    04:00 +15°C° 0.4 mm 2 m/s 756 mmHg 83%
    05:00 +16°C° 0 mm 2 m/s 756 mmHg 83%
    06:00 +16°C° 0 mm 2 m/s 756 mmHg 83%
    07:00 +17°C° 0 mm 2 m/s 756 mmHg 83%
    08:00 +19°C° 0 mm 2 m/s 756 mmHg 80%
    09:00 +21°C° 0 mm 1 m/s 756 mmHg 77%
    10:00 +23°C° 0 mm 1 m/s 756 mmHg 74%
    11:00 +24°C° 0 mm 2 m/s 755 mmHg 73%
    12:00 +25°C° 0 mm 2 m/s 755 mmHg 72%
    13:00 +27°C° 0 mm 2 m/s 754 mmHg 71%
    14:00 +27°C° 0 mm 2 m/s 753 mmHg 75%
    15:00 +27°C° 0 mm 2 m/s 753 mmHg 79%
    16:00 +27°C° 0 mm 2 m/s 752 mmHg 82%
    17:00 +26°C° 1.4 mm 3 m/s 752 mmHg 82%
    18:00 +25°C° 1.4 mm 4 m/s 751 mmHg 82%
    19:00 +23°C° 1.4 mm 4 m/s 751 mmHg 82%
    20:00 +23°C° 0.4 mm 4 m/s 751 mmHg 85%
    21:00 +22°C° 0.4 mm 4 m/s 751 mmHg 88%
    22:00 +21°C° 0.4 mm 3 m/s 750 mmHg 92%
    23:00 +21°C° 0 mm 4 m/s 750 mmHg 91%

    24 Mai, Vineri

    Timp Temperatura Precipitaţii Vânt Presiune Umiditate
    00:00 +21°C° 0 mm 4 m/s 750 mmHg 91%
    01:00 +20°C° 0 mm 4 m/s 750 mmHg 90%
    02:00 +19°C° 0 mm 4 m/s 750 mmHg 89%
    03:00 +18°C° 0 mm 4 m/s 750 mmHg 88%
    04:00 +15°C° 0 mm 4 m/s 751 mmHg 87%
    05:00 +17°C° 0 mm 4 m/s 751 mmHg 85%
    06:00 +17°C° 0 mm 4 m/s 752 mmHg 83%
    07:00 +16°C° 0 mm 5 m/s 752 mmHg 81%
    08:00 +17°C° 0 mm 5 m/s 753 mmHg 77%
    09:00 +19°C° 0 mm 5 m/s 753 mmHg 73%
    10:00 +20°C° 0 mm 5 m/s 754 mmHg 68%
    11:00 +22°C° 0 mm 5 m/s 754 mmHg 65%
    12:00 +23°C° 0 mm 5 m/s 753 mmHg 62%
    13:00 +25°C° 0 mm 5 m/s 753 mmHg 59%
    14:00 +25°C° 0 mm 4 m/s 753 mmHg 57%
    15:00 +26°C° 0 mm 3 m/s 753 mmHg 56%
    16:00 +27°C° 0 mm 3 m/s 753 mmHg 55%
    17:00 +25°C° 0 mm 2 m/s 753 mmHg 60%
    18:00 +24°C° 0 mm 1 m/s 754 mmHg 65%
    19:00 +23°C° 0 mm 1 m/s 754 mmHg 70%
    20:00 +22°C° 0 mm 1 m/s 754 mmHg 73%
    21:00 +21°C° 0 mm 1 m/s 755 mmHg 75%
    22:00 +19°C° 0 mm 1 m/s 755 mmHg 77%
    23:00 +17°C° 0 mm 2 m/s 755 mmHg 80%

    25 Mai, Sâmbătă

    Timp Temperatura Precipitaţii Vânt Presiune Umiditate
    00:00 +17°C° 0 mm 2 m/s 755 mmHg 82%
    01:00 +16°C° 0 mm 3 m/s 755 mmHg 84%
    02:00 +14°C° 0 mm 3 m/s 755 mmHg 83%
    03:00 +13°C° 0 mm 3 m/s 755 mmHg 82%
    04:00 +13°C° 0 mm 3 m/s 756 mmHg 81%
    05:00 +13°C° 0 mm 3 m/s 756 mmHg 81%
    06:00 +13°C° 0 mm 3 m/s 756 mmHg 81%
    07:00 +14°C° 0 mm 3 m/s 756 mmHg 81%
    08:00 +16°C° 0 mm 3 m/s 756 mmHg 78%
    09:00 +18°C° 0 mm 4 m/s 755 mmHg 74%
    10:00 +20°C° 0 mm 4 m/s 755 mmHg 71%
    11:00 +21°C° 0 mm 4 m/s 754 mmHg 71%
    12:00 +22°C° 0 mm 4 m/s 754 mmHg 70%
    13:00 +25°C° 0 mm 4 m/s 753 mmHg 69%
    14:00 +25°C° 0.1 mm 4 m/s 753 mmHg 73%
    15:00 +25°C° 0.1 mm 3 m/s 752 mmHg 77%
    16:00 +25°C° 0.1 mm 3 m/s 752 mmHg 81%
    17:00 +24°C° 0.6 mm 3 m/s 752 mmHg 83%
    18:00 +23°C° 0.6 mm 2 m/s 752 mmHg 86%
    19:00 +23°C° 0.6 mm 2 m/s 752 mmHg 89%
    20:00 +21°C° 0.8 mm 2 m/s 752 mmHg 90%
    21:00 +21°C° 0.8 mm 2 m/s 752 mmHg 92%
    22:00 +20°C° 0.8 mm 2 m/s 752 mmHg 93%
    23:00 +21°C° 0 mm 1 m/s 752 mmHg 93%
    Arată mai mult